Location: Unspecified
(0.0000°N, 0.0000°E)
Time: 18:05:32
(UTC+00:00)

THORAD DELTA 1 DEB - Pass Details

Date: 23 February 2026
Orbit: 1442 x 1568 km, 101.4° (Epoch: 22 February)

Event Time Altitude Azimuth Distance (km) Brightness Sun altitude
Exits shadow 21:57:33 25° 242° (WSW) 2,778 ? -54.9°
Drops below altitude 10° 22:01:16 10° 224° (SW) 3,743 ? -55.8°
Sets 22:04:27 0° 215° (SW) 4,717 ? -56.5°
